Home   Weather   United Kingdom   St Helens   Past weeks
Flag for United Kingdom

Past Weather in St Helens, England, United Kingdom — Yesterday and Last 2 Weeks

Currently: 39 °F. Low clouds. (Weather station: Liverpool Airport, United Kingdom). See more current weather

Past Weather in St Helens — Graph

°F

St Helens Temperature Yesterday

Maximum temperature yesterday: 45 °F (at 11:50 am)
Minimum temperature yesterday: 36 °F (at 2:20 am)
Average temperature yesterday: 41 °F

High & Low Weather Summary for the Past Weeks

 TemperatureHumidityPressure
High55 °F (Nov 25, 1:50 pm)100% (Nov 16, 4:50 am)30.30 "Hg (Nov 16, 4:50 am)
Low36 °F (Nov 29, 2:20 am)67% (Nov 25, 11:50 am)28.97 "Hg (Nov 23, 6:50 am)
Average46 °F88%29.58 "Hg
* Reported Nov 15 3:20 pm — Nov 30 3:20 pm, St Helens. Weather by CustomWeather, © 2022

Note: Actual official high and low records may vary slightly from our data, if they occured in-between our weather recording intervals... More about our weather records

St Helens Weather History for the Previous 24 Hours

Scroll right to see more
 ConditionsComfort  
Time TempWeatherWind HumidityBarometerVisibility
3:20 pm
Wed, Nov 30
39 °FLow clouds.10 mph93%30.27 "Hg5 mi
2:50 pm39 °FLow clouds.9 mph93%30.30 "Hg5 mi
2:20 pm39 °FLow clouds.10 mph93%30.30 "Hg6 mi
1:50 pm39 °FLow clouds.9 mph93%30.27 "Hg6 mi
12:50 pm41 °FLow clouds.8 mph87%30.27 "Hg5 mi
11:50 am41 °FLow clouds.9 mph93%30.30 "Hg5 mi
11:20 am39 °FLow clouds.10 mph93%30.30 "Hg5 mi
10:50 am39 °FLow clouds.10 mph93%30.27 "Hg4 mi
10:20 am39 °FFog.8 mph93%30.27 "Hg3 mi
9:50 am39 °FFog.9 mph93%30.27 "Hg3 mi
9:20 am39 °FFog.8 mph93%30.27 "Hg3 mi
8:50 am39 °FFog.10 mph93%30.24 "Hg3 mi
8:20 am39 °FFog.12 mph93%30.24 "Hg3 mi
7:50 am39 °FLow clouds.8 mph93%30.24 "Hg4 mi
7:20 am39 °FLow clouds.8 mph93%30.24 "Hg6 mi
6:50 am39 °FLow clouds.8 mph93%30.21 "Hg6 mi
6:20 am39 °FLow clouds.10 mph100%30.21 "Hg6 mi
5:50 am39 °FLow clouds.9 mph100%30.21 "Hg6 mi
5:20 am41 °FLow clouds.9 mph93%30.21 "HgN/A
4:50 am41 °FLow clouds.10 mph93%30.21 "HgN/A
4:20 am39 °FLow clouds.6 mph100%30.21 "Hg4 mi
3:50 am41 °FLow clouds.5 mph93%30.21 "Hg4 mi
3:20 am41 °FLow clouds.6 mph93%30.18 "Hg4 mi
2:50 am39 °FFog.6 mph100%30.18 "Hg3 mi
2:20 am41 °FFog.7 mph93%30.18 "Hg3 mi
1:50 am41 °FFog.6 mph93%30.18 "Hg3 mi
1:20 am41 °FFog.5 mph100%30.18 "Hg3 mi
12:50 am41 °FLow clouds.7 mph100%30.18 "Hg4 mi
11:20 pm
Tue, Nov 29
41 °FDrizzle. Mostly cloudy.7 mph93%30.18 "Hg4 mi
10:50 pm41 °FDrizzle. Mostly cloudy.8 mph100%30.18 "Hg3 mi
9:50 pm41 °FPassing clouds.10 mph93%30.18 "Hg3 mi
9:20 pm41 °FLow clouds.8 mph100%30.18 "Hg4 mi
8:50 pm41 °FLow clouds.8 mph100%30.18 "Hg4 mi
8:20 pm41 °FLow clouds.7 mph100%30.18 "Hg4 mi
7:50 pm41 °FLow clouds.6 mph100%30.18 "Hg4 mi
7:20 pm43 °FLow clouds.6 mph93%30.18 "Hg4 mi
6:50 pm43 °FLow clouds.8 mph93%30.15 "Hg5 mi
6:20 pm41 °FLow clouds.8 mph100%30.15 "Hg5 mi
5:50 pm43 °FLow clouds.7 mph100%30.15 "Hg4 mi
5:20 pm43 °FMostly cloudy.7 mph93%30.15 "Hg4 mi
4:50 pm43 °FMostly cloudy.6 mph93%30.15 "Hg4 mi
4:20 pm43 °FFog.7 mph93%30.15 "Hg1 mi
Weather by CustomWeather, © 2022

See weather overview